When you browse on this site, cookies collect data to enhance your experience and personalize the content and advertising you see.
Visit our Privacy Policy to learn more. By continuing to use the site, you agree to this use of cookies and data.
  • In Hungary
  • List of Countries
  • For 7 days
  • Water Temperature
  • Weather Map
  • News
  • Weather Widgets
  • user-avatar
    Login

    Hourly Weather Bogomila

    Today, 22 November, Friday

    Time Temperature Precipitation Wind Pressure Humidity
    00:00 +8°C° 0 mm 1 mps 691 mmHg 83%
    01:00 +7°C° 0 mm 0 mps 691 mmHg 81%
    02:00 +7°C° 0 mm 0 mps 691 mmHg 81%
    03:00 +7°C° 0 mm 0 mps 691 mmHg 80%
    04:00 +7°C° 0 mm 0 mps 691 mmHg 80%
    05:00 +7°C° 0 mm 0 mps 691 mmHg 80%
    06:00 +7°C° 0 mm 0 mps 691 mmHg 79%
    07:00 +7°C° 0 mm 0 mps 691 mmHg 79%
    08:00 +8°C° 0 mm 0 mps 691 mmHg 76%
    09:00 +9°C° 0 mm 0 mps 692 mmHg 73%
    10:00 +10°C° 0 mm 0 mps 693 mmHg 69%
    11:00 +10°C° 0 mm 0 mps 692 mmHg 68%
    12:00 +11°C° 0 mm 0 mps 692 mmHg 67%
    13:00 +12°C° 0 mm 1 mps 692 mmHg 65%
    14:00 +11°C° 0 mm 1 mps 692 mmHg 71%
    15:00 +10°C° 0 mm 1 mps 692 mmHg 77%
    16:00 +9°C° 0 mm 1 mps 692 mmHg 83%
    17:00 +9°C° 0 mm 1 mps 692 mmHg 86%
    18:00 +7°C° 0 mm 0 mps 692 mmHg 89%
    19:00 +6°C° 0 mm 0 mps 693 mmHg 91%
    20:00 +6°C° 0 mm 0 mps 693 mmHg 92%
    21:00 +6°C° 0 mm 0 mps 693 mmHg 92%
    22:00 +6°C° 0 mm 0 mps 693 mmHg 92%
    23:00 +6°C° 0 mm 0 mps 693 mmHg 93%

    Tomorrow, 23 November, Saturday

    Time Temperature Precipitation Wind Pressure Humidity
    00:00 +5°C° 0 mm 0 mps 693 mmHg 93%
    01:00 +5°C° 0 mm 0 mps 693 mmHg 93%
    02:00 +5°C° 0 mm 0 mps 693 mmHg 94%
    03:00 +5°C° 0 mm 0 mps 693 mmHg 94%
    04:00 +5°C° 0 mm 0 mps 693 mmHg 94%
    05:00 +5°C° 0 mm 0 mps 693 mmHg 94%
    06:00 +5°C° 0 mm 0 mps 693 mmHg 94%
    07:00 +5°C° 0 mm 0 mps 693 mmHg 94%
    08:00 +6°C° 0 mm 0 mps 693 mmHg 90%
    09:00 +9°C° 0 mm 1 mps 694 mmHg 85%
    10:00 +10°C° 0 mm 1 mps 694 mmHg 81%
    11:00 +10°C° 0 mm 1 mps 693 mmHg 77%
    12:00 +11°C° 0 mm 1 mps 693 mmHg 74%
    13:00 +12°C° 0 mm 1 mps 693 mmHg 70%
    14:00 +11°C° 0 mm 1 mps 693 mmHg 73%
    15:00 +10°C° 0 mm 1 mps 693 mmHg 77%
    16:00 +10°C° 0 mm 1 mps 692 mmHg 80%
    17:00 +9°C° 0 mm 1 mps 693 mmHg 83%
    18:00 +9°C° 0 mm 1 mps 693 mmHg 86%
    19:00 +8°C° 0 mm 1 mps 693 mmHg 89%
    20:00 +8°C° 0 mm 1 mps 693 mmHg 90%
    21:00 +7°C° 0 mm 1 mps 693 mmHg 91%
    22:00 +7°C° 0 mm 1 mps 693 mmHg 92%
    23:00 +7°C° 0 mm 1 mps 693 mmHg 93%

    Day after tomorrow, 24 November, Sunday

    Time Temperature Precipitation Wind Pressure Humidity
    00:00 +7°C° 0 mm 1 mps 693 mmHg 93%
    01:00 +6°C° 0 mm 1 mps 693 mmHg 94%
    02:00 +6°C° 0 mm 1 mps 692 mmHg 94%
    03:00 +6°C° 0 mm 1 mps 692 mmHg 94%
    04:00 +6°C° 0 mm 1 mps 692 mmHg 94%
    05:00 +5°C° 0 mm 0 mps 692 mmHg 94%
    06:00 +5°C° 0 mm 0 mps 692 mmHg 94%
    07:00 +5°C° 0 mm 0 mps 692 mmHg 94%
    08:00 +8°C° 0 mm 1 mps 692 mmHg 89%
    09:00 +9°C° 0 mm 1 mps 692 mmHg 84%
    10:00 +10°C° 0 mm 1 mps 692 mmHg 79%
    11:00 +10°C° 0 mm 2 mps 692 mmHg 77%
    12:00 +10°C° 0 mm 2 mps 692 mmHg 75%
    13:00 +12°C° 0 mm 2 mps 691 mmHg 72%
    14:00 +10°C° 0 mm 2 mps 691 mmHg 77%
    15:00 +9°C° 0 mm 2 mps 690 mmHg 81%
    16:00 +9°C° 0 mm 2 mps 690 mmHg 85%
    17:00 +9°C° 0 mm 1 mps 690 mmHg 87%
    18:00 +9°C° 0 mm 1 mps 690 mmHg 89%
    19:00 +8°C° 0 mm 1 mps 690 mmHg 91%
    20:00 +8°C° 0 mm 1 mps 689 mmHg 92%
    21:00 +8°C° 0 mm 1 mps 689 mmHg 92%
    22:00 +8°C° 0 mm 1 mps 689 mmHg 93%
    23:00 +8°C° 0 mm 1 mps 689 mmHg 92%

    25 November, Monday

    Time Temperature Precipitation Wind Pressure Humidity
    00:00 +8°C° 0 mm 1 mps 688 mmHg 92%
    01:00 +8°C° 0 mm 1 mps 688 mmHg 91%
    02:00 +8°C° 0 mm 1 mps 688 mmHg 91%
    03:00 +8°C° 0 mm 1 mps 687 mmHg 91%
    04:00 +8°C° 0 mm 1 mps 687 mmHg 91%
    05:00 +7°C° 0.1 mm 2 mps 687 mmHg 90%
    06:00 +7°C° 0.1 mm 2 mps 687 mmHg 89%
    07:00 +7°C° 0.1 mm 2 mps 687 mmHg 88%
    08:00 +7°C° 0.2 mm 2 mps 687 mmHg 86%
    09:00 +7°C° 0.2 mm 2 mps 687 mmHg 85%
    10:00 +8°C° 0.2 mm 2 mps 687 mmHg 84%
    11:00 +8°C° 0.1 mm 2 mps 687 mmHg 82%
    12:00 +9°C° 0.1 mm 1 mps 687 mmHg 81%
    13:00 +9°C° 0.1 mm 1 mps 686 mmHg 79%
    14:00 +9°C° 0.2 mm 1 mps 687 mmHg 81%
    15:00 +9°C° 0.2 mm 1 mps 687 mmHg 82%
    16:00 +9°C° 0.2 mm 1 mps 687 mmHg 83%
    17:00 +9°C° 0.1 mm 1 mps 687 mmHg 84%
    18:00 +9°C° 0.1 mm 1 mps 687 mmHg 84%
    19:00 +9°C° 0.1 mm 1 mps 688 mmHg 84%
    20:00 +9°C° 0 mm 1 mps 688 mmHg 84%
    21:00 +9°C° 0 mm 1 mps 688 mmHg 85%
    22:00 +9°C° 0 mm 1 mps 688 mmHg 85%
    23:00 +8°C° 0 mm 0 mps 688 mmHg 85%

    26 November, Tuesday

    Time Temperature Precipitation Wind Pressure Humidity
    00:00 +7°C° 0 mm 0 mps 688 mmHg 85%
    01:00 +7°C° 0 mm 0 mps 688 mmHg 86%
    02:00 +7°C° 0 mm 0 mps 688 mmHg 87%
    03:00 +6°C° 0 mm 0 mps 688 mmHg 88%
    04:00 +6°C° 0 mm 0 mps 688 mmHg 89%
    05:00 +6°C° 0 mm 0 mps 688 mmHg 89%
    06:00 +5°C° 0 mm 0 mps 688 mmHg 89%
    07:00 +5°C° 0 mm 0 mps 688 mmHg 89%
    08:00 +7°C° 0 mm 0 mps 689 mmHg 83%
    09:00 +8°C° 0 mm 0 mps 689 mmHg 77%
    10:00 +10°C° 0 mm 0 mps 690 mmHg 71%
    11:00 +12°C° 0 mm 1 mps 689 mmHg 68%
    12:00 +13°C° 0 mm 1 mps 689 mmHg 66%
    13:00 +13°C° 0 mm 1 mps 689 mmHg 63%
    14:00 +12°C° 0 mm 1 mps 689 mmHg 67%
    15:00 +11°C° 0 mm 1 mps 689 mmHg 72%
    16:00 +9°C° 0 mm 0 mps 689 mmHg 77%
    17:00 +9°C° 0 mm 0 mps 689 mmHg 79%
    18:00 +8°C° 0 mm 0 mps 689 mmHg 80%
    19:00 +8°C° 0 mm 0 mps 690 mmHg 82%
    20:00 +8°C° 0 mm 0 mps 690 mmHg 83%
    21:00 +8°C° 0 mm 0 mps 690 mmHg 84%
    22:00 +7°C° 0 mm 0 mps 690 mmHg 85%
    23:00 +8°C° 0 mm 1 mps 690 mmHg 86%

    27 November, Wednesday

    Time Temperature Precipitation Wind Pressure Humidity
    00:00 +8°C° 0 mm 1 mps 690 mmHg 87%
    01:00 +8°C° 0 mm 1 mps 690 mmHg 88%
    02:00 +7°C° 0 mm 1 mps 690 mmHg 88%
    03:00 +7°C° 0 mm 1 mps 690 mmHg 89%
    04:00 +7°C° 0 mm 1 mps 690 mmHg 90%
    05:00 +7°C° 0 mm 1 mps 690 mmHg 90%
    06:00 +7°C° 0 mm 1 mps 690 mmHg 90%
    07:00 +6°C° 0 mm 1 mps 691 mmHg 90%
    08:00 +8°C° 0 mm 1 mps 691 mmHg 83%
    09:00 +10°C° 0 mm 1 mps 691 mmHg 77%
    10:00 +12°C° 0 mm 1 mps 692 mmHg 70%
    11:00 +12°C° 0 mm 1 mps 691 mmHg 66%
    12:00 +13°C° 0 mm 1 mps 691 mmHg 63%
    13:00 +14°C° 0 mm 1 mps 691 mmHg 59%
    14:00 +13°C° 0 mm 1 mps 691 mmHg 64%
    15:00 +12°C° 0 mm 1 mps 691 mmHg 69%
    16:00 +11°C° 0 mm 1 mps 690 mmHg 75%
    17:00 +10°C° 0 mm 1 mps 690 mmHg 78%
    18:00 +10°C° 0 mm 1 mps 690 mmHg 82%
    19:00 +9°C° 0 mm 1 mps 691 mmHg 86%
    20:00 +9°C° 0 mm 1 mps 691 mmHg 86%
    21:00 +9°C° 0 mm 1 mps 691 mmHg 87%
    22:00 +8°C° 0 mm 1 mps 691 mmHg 88%
    23:00 +8°C° 0 mm 1 mps 691 mmHg 89%
    Show more